Hoonah, AK

6:58 PM AKDT on August 29, 2016 (GMT -0800)
Hoonah

Weather History for PAOH - October, 2014

Change the Weather History Date:

Saturday, October 4, 2014

  Actual Average Record
Temperature  
Mean Temperature 49 °F -  
Max Temperature 55 °F 48 °F 60 °F (2003)
Min Temperature 43 °F 39 °F 30 °F (2000)
Degree Days  
Heating Degree Days 16    
Moisture  
Dew Point 49 °F    
Average Humidity 95    
Maximum Humidity 100    
Minimum Humidity 72    
Precipitation  
Precipitation 0.03 in - - ()
Sea Level Pressure  
Sea Level Pressure 29.86 in    
Wind  
Wind Speed 3 mph (NW)    
Max Wind Speed 6 mph    
Max Gust Speed -    
Visibility 9 miles    
Events Rain    
Averages and records for this station are not official NWS values.
T = Trace of Precipitation, MM = Missing Value Source: NWS Daily Summary

Daily Weather History Graph

Daily Weather History Graph

Search for Another Location

Airport or City:

Trip Planner

Search our weather history database for the weather conditions in past years. The results will help you decide how hot, cold, wet, or windy it might be!

Date:

Astronomy

Oct. 04, 2014 Rise Set
Actual Time 7:13 AM AKDT 6:26 PM AKDT
Civil Twilight 6:33 AM AKDT 7:05 PM AKDT
Nautical Twilight 5:47 AM AKDT 7:51 PM AKDT
Astronomical Twilight 5:00 AM AKDT 8:38 PM AKDT
Moon 4:51 PM AKDT (10/4) 1:57 AM AKDT (10/4)
Length of Visible Light 12h 32m
Length of Day
11h 13m
Waxing Gibbous, 82% of the Moon is Illuminated
Oct 4
Waxing Gibbous
Oct 8
Full
Oct 15
Last Quarter
Oct 23
New
Oct 30
First Quarter

Hourly Weather History & Observations

Time (AKDT) Temp. Windchill Dew Point Humidity Pressure Visibility Wind Dir Wind Speed Gust Speed Precip Events Conditions
12:14 AM 51.8 °F - 51.8 °F 100% 29.59 in 6.0 mi NNW 3.5 mph - 0.01 in Rain Light Rain
12:56 AM 51.8 °F - 51.8 °F 100% 29.61 in 5.0 mi Variable 4.6 mph - N/A Rain Light Rain
1:56 AM 52.0 °F - 52.0 °F 100% 29.64 in 10.0 mi ENE 4.6 mph - 0.00 in   Mostly Cloudy
2:56 AM 52.0 °F - 52.0 °F 100% 29.66 in 8.0 mi Calm Calm - 0.02 in Rain Light Rain
3:26 AM 53.6 °F - 53.6 °F 100% 29.66 in 5.0 mi Calm Calm - 0.03 in Rain Light Rain
3:56 AM 53.6 °F - 53.6 °F 100% 29.69 in 4.0 mi NW 3.5 mph - N/A Rain Light Rain
4:56 AM 52.9 °F - 52.9 °F 100% 29.73 in 10.0 mi NW 4.6 mph - 0.01 in   Mostly Cloudy
5:56 AM 50.9 °F - 50.9 °F 100% 29.78 in 10.0 mi NNW 4.6 mph - 0.00 in   Overcast
6:56 AM 51.8 °F - 48.2 °F 88% 29.81 in 10.0 mi WNW 5.8 mph - N/A   Overcast
7:56 AM 46.9 °F - 46.9 °F 100% 29.85 in 9.0 mi Calm Calm - N/A   Partly Cloudy
8:56 AM 48.9 °F - 48.9 °F 100% 29.88 in 10.0 mi West 4.6 mph - N/A   Scattered Clouds
9:56 AM 50.9 °F - 46.9 °F 86% 29.90 in 10.0 mi Variable 3.5 mph - N/A   Partly Cloudy
10:56 AM 52.9 °F - 45.0 °F 74% 29.93 in 10.0 mi West 4.6 mph - N/A   Overcast
11:56 AM 54.9 °F - 45.9 °F 72% 29.96 in 10.0 mi Variable 3.5 mph - 0.00 in   Overcast
12:56 PM 55.4 °F - 46.4 °F 72% 29.96 in 10.0 mi Variable 5.8 mph - N/A   Mostly Cloudy
1:56 PM 52.9 °F - 50.0 °F 90% 29.97 in 10.0 mi Calm Calm - 0.00 in   Overcast
2:56 PM 50.9 °F - 48.9 °F 93% 29.99 in 6.0 mi West 3.5 mph - 0.00 in Rain Light Rain
3:56 PM 52.0 °F - 50.0 °F 93% 30.00 in 9.0 mi Calm Calm - 0.00 in   Overcast
4:56 PM 50.9 °F - 50.0 °F 97% 29.99 in 10.0 mi East 4.6 mph - 0.00 in   Mostly Cloudy
5:56 PM 50.9 °F - 50.0 °F 97% 29.99 in 10.0 mi ENE 3.5 mph - 0.00 in Rain Light Rain
6:56 PM 47.8 °F - 47.8 °F 100% 29.98 in 10.0 mi Variable 4.6 mph - 0.00 in   Clear
7:56 PM 45.9 °F - 45.9 °F 100% 29.99 in 10.0 mi Calm Calm - N/A   Overcast
8:56 PM 45.9 °F 43.6 °F 45.9 °F 100% 29.98 in 10.0 mi South 4.6 mph - N/A   Mostly Cloudy
9:56 PM 45.9 °F - 45.9 °F 100% 29.98 in 10.0 mi Calm Calm - N/A   Mostly Cloudy
10:56 PM 43.9 °F 41.3 °F 43.9 °F 100% 29.96 in 10.0 mi South 4.6 mph - N/A   Mostly Cloudy
11:56 PM 46.9 °F - 45.9 °F 96% 29.96 in 10.0 mi East 5.8 mph - N/A   Overcast